TIME,�g��[���C[MJ/h],����[MJ/h],�Ɩ�[MJ/h],�~�[[MJ/h],�①��[MJ/h],��y���[MJ/h],�Ǝ��q��[MJ/h],���̑��s��[MJ/h],�u�����`������[MJ/h]
2003/12/1 0:00,0.108,0,0.08064,0.03024,0.44496,0.2376,0.0792,0,-0.00576
2003/12/1 0:15,0.11088,0,0.07056,0.0216,0,0.19872,0.08064,0,0.07056
2003/12/1 0:30,0.10944,0,0.05904,0.02304,0.16992,0.1944,0.07776,0,0.05328
2003/12/1 0:45,0.11088,0,0.05616,0.03024,0.43056,0.1944,0.08208,0,0.01728
2003/12/1 1:00,0.10944,0,0.05616,0.0216,0,0.1944,0.08208,0,0.07488
2003/12/1 1:15,0.108,0,0.05472,0.02448,0.1656,0.19584,0.07776,0,0.04752
2003/12/1 1:30,0.10224,0,0.06192,0.0288,0.44496,0.1944,0.08352,0,0.01872
2003/12/1 1:45,0.10368,0,0.04752,0.0216,0.02016,0.1944,0.08064,0,0.07776
2003/12/1 2:00,0.11232,0,0.05328,0.02304,0.13968,0.1944,0.08352,0,0.05328
2003/12/1 2:15,0.11088,0,0.0504,0.03456,0.43488,0.1944,0.08064,0,0.02304
2003/12/1 2:30,0.10944,0,0.04896,0.0216,0,0.1944,0.08064,0,0.07488
2003/12/1 2:45,0.11088,0,0.05328,0.02304,0.15984,0.1944,0.0792,0,0.0576
2003/12/1 3:00,0.108,0,0.05472,0.03168,0.44064,0.1944,0.0792,0,0.01872
2003/12/1 3:15,0.10656,0,0.04896,0.0216,0.03024,0.1944,0.08064,0,0.07056
2003/12/1 3:30,0.1008,0,0.04896,0.0216,0.10368,0.19584,0.08064,0,0.06048
2003/12/1 3:45,0.108,0,0.0504,0.02592,0.4392,0.1944,0.08064,0,0.01584
2003/12/1 4:00,0.108,0,0.05184,0.0216,0.04896,0.1944,0.08352,0,0.07056
2003/12/1 4:15,0.108,0,0.05328,0.0216,0.0864,0.1944,0.08208,0,0.06624
2003/12/1 4:30,0.10368,0,0.05184,0.03168,0.44064,0.1944,0.08064,0,0.03024
2003/12/1 4:45,0.10944,0,0.0504,0.02304,0.0936,0.1944,0.08352,0,0.06048
2003/12/1 5:00,0.1008,0,0.0504,0.02448,0.05616,0.1944,0.08064,0,0.05904
2003/12/1 5:15,0.10944,0,0.05184,0.02448,0.43632,0.1944,0.08352,0,0.02016
2003/12/1 5:30,0.10224,0,0.0504,0.02304,0.08064,0.1944,0.07776,0,0.06768
2003/12/1 5:45,0.11088,0,0.0648,0.0216,0.05328,0.21312,0.08208,0,0.06048
2003/12/1 6:00,0.10944,0,0.13824,0.03168,0.43632,0.23184,0.07344,0,-0.0072
2003/12/1 6:15,0.10368,0,0.70848,0.53712,0.21888,0.1944,0.08928,0,-0.07488
2003/12/1 6:30,0.12096,0,1.25856,1.16928,0.1584,0.21168,0.0864,0,0.51984
2003/12/1 6:45,0.14256,0,1.09008,1.5912,0.44928,0.20304,0.51408,0,1.3824
2003/12/1 7:00,0.14256,0,2.78496,1.0512,0.16992,0.2016,0.58464,0,-0.19872
2003/12/1 7:15,0.14256,0,3.00096,0.66672,0,0.1944,0.40464,0,-0.19296
2003/12/1 7:30,0.10944,0,2.26224,0.09072,0.36864,0.1944,0.08352,0,-0.2232
2003/12/1 7:45,0.108,0,1.548,0.45792,0.42912,0.27504,0.3168,0,-0.25488
2003/12/1 8:00,0.1008,0,0.85824,0.13104,0.00432,0.25632,0.08352,0,-0.06912
2003/12/1 8:15,0.93456,0,0.5544,0.02304,0.05904,0.1944,0.0792,0,-0.10368
2003/12/1 8:30,0.10944,0,0.06768,0.02736,0.4536,0.1944,0.08352,0,0.01872
2003/12/1 8:45,0.108,0,0.04896,0.0216,0.2304,0.1944,0.07632,0,0.036
2003/12/1 9:00,0.10944,0,0.04608,0.0216,0,0.1944,0.08352,0,0.07632
2003/12/1 9:15,0.10656,0,0.0576,0.02304,0.27216,0.1944,0.08352,0,0.03312
2003/12/1 9:30,0.11088,0,0.04464,0.02736,0.43632,0.1944,0.08064,0,0.02304
2003/12/1 9:45,0.11232,0,0.04752,0.0216,0,0.1944,0.08064,0,0.07488
2003/12/1 10:00,0.10368,0,0.0432,0.0216,0.05616,0.1944,0.07776,0,0.07776
2003/12/1 10:15,0.10944,0,0.04608,0.03024,0.4392,0.19728,0.08496,0,0.0216
2003/12/1 10:30,0.108,0,0.04464,0.02304,0.1944,0.1944,0.08064,0,0.05616
2003/12/1 10:45,0.11088,0,0.04752,0.0216,0,0.1944,0.08208,0,0.07632
2003/12/1 11:00,0.10224,0,0.0432,0.0288,0.31248,0.1944,0.07776,0,0.03456
2003/12/1 11:15,0.11088,0,0.04464,0.02448,0.45072,0.1944,0.08496,0,0.01152
2003/12/1 11:30,0.11088,0,0.04608,0.03312,0.55584,0.1944,0.07776,0,-0.0072
2003/12/1 11:45,0.108,0,0.0504,0.03456,0.55584,0.1944,0.0792,0,-0.0144
2003/12/1 12:00,0.10224,0,0.04464,0.02592,0.47808,0.19728,0.0792,0,0
2003/12/1 12:15,0.10944,0,0.0432,0.02448,0.51552,0.1944,0.0864,0,0.01872
2003/12/1 12:30,0.10944,0,0.04608,0.02736,0.4824,0.1944,0.07776,0,0.0072
2003/12/1 12:45,0.10944,0,0.04752,0.02592,0.45936,0.1944,0.08352,0,0.01872
2003/12/1 13:00,0.11232,0,0.04464,0.02592,0.40608,0.1944,0.08208,0,0.02448
2003/12/1 13:15,0.10656,0,0.04464,0.0216,0,0.1944,0.08496,0,0.07344
2003/12/1 13:30,0.10656,0,0.0432,0.02592,0.19872,0.1944,0.08352,0,0.05328
2003/12/1 13:45,0.1008,0,0.05328,0.02592,0.45216,0.1944,0.0792,0,0.02448
2003/12/1 14:00,0.10944,0,0.04608,0.02736,0.12384,0.1944,0.08352,0,0.06048
2003/12/1 14:15,0.10656,0,0.04608,0.0216,0,0.1944,0.0792,0,0.07776
2003/12/1 14:30,0.108,0,0.05328,0.02592,0.43344,0.1944,0.08784,0,0.01584
2003/12/1 14:45,0.10944,0,0.04896,0.03024,0.29088,0.1944,0.07632,0,0.03024
2003/12/1 15:00,0.10656,0,0.05184,0.0216,0,0.1944,0.0792,0,0.07776
2003/12/1 15:15,0.10224,0,0.0504,0.02736,0.24048,0.1944,0.0864,0,0.03456
2003/12/1 15:30,0.108,0,0.04464,0.03456,0.43488,0.1944,0.04896,0,0.0216
2003/12/1 15:45,0.1008,0,0.3528,0.21024,0.06624,0.1944,0.08064,0,0.04464
2003/12/1 16:00,0.10656,0,0.68976,2.48256,0,0.1944,0.0792,0,0.108
2003/12/1 16:15,0.10944,0,0.64368,1.10736,0.40752,0.19584,0.08352,0,0.02304
2003/12/1 16:30,0.10944,0,0.6552,0.14544,0.24336,0.1944,0.0792,0,-0.02016
2003/12/1 16:45,0.10656,0,0.9072,0.04464,0,0.1944,0.08208,0,0.00288
2003/12/1 17:00,0.10224,0,1.4256,0.47664,0.35568,0.34848,0.07776,0,-0.17712
2003/12/1 17:15,0.10944,0,1.74672,0.02736,0.37008,0.4248,0.08352,0,-0.1944
2003/12/1 17:30,0.10944,0,1.62144,0.0216,0,0.432,0.08064,0,-0.1152
2003/12/1 17:45,0.10656,0,2.44944,0.02448,0.15408,0.432,0.08352,0,-0.17856
2003/12/1 18:00,0.10512,0,2.49264,0.03024,0.4464,0.432,0.08352,0,-0.2088
2003/12/1 18:15,0.14112,0,2.43504,0.02448,0.08064,0.33264,0.07632,0,-0.15552
2003/12/1 18:30,0.83952,0,1.47744,0.0216,0.03456,0.1944,0.08208,0,-0.09504
2003/12/1 18:45,0.51264,0,1.43856,0.02736,0.43056,0.1944,0.07632,0,-0.08784
2003/12/1 19:00,1.08864,0,1.60272,0.30816,0.19872,0.33552,0.08496,0,-0.14112
2003/12/1 19:15,1.37088,0,1.64448,0.0216,0,0.40464,0.07776,0,-0.12528
2003/12/1 19:30,1.2528,0,1.72224,0.02736,0.35856,0.2088,0.08208,0,-0.1872
2003/12/1 19:45,1.37088,0,1.61856,0.02304,0.36,0.1944,0.10944,0,-0.21312
2003/12/1 20:00,1.29888,0,1.44,0.0216,0,0.1944,0.08208,0,-0.08208
2003/12/1 20:15,1.2312,0,1.23264,0.02448,0.13248,0.1944,0.0864,0,-0.02592
2003/12/1 20:30,0.93024,0,1.41552,0.02592,0.44064,0.27216,0.1152,0,-0.0576
2003/12/1 20:45,0.83088,0,1.65888,0.18432,0.1728,0.27216,0.08496,0,-0.10512
2003/12/1 21:00,0.75024,0,2.3544,0.0216,0,0.3528,0.08208,0,-0.1152
2003/12/1 21:15,0.75168,0,2.39904,0.02304,0.33552,0.40608,0.0864,0,-0.17712
2003/12/1 21:30,0.75312,0,2.43648,0.02736,0.39744,0.4104,0.08496,0,-0.18576
2003/12/1 21:45,0.75456,0,2.7576,0.0216,0,0.34704,0.08208,0,-0.13536
2003/12/1 22:00,0.756,0,2.08656,0.0216,0.11088,0.1944,0.08928,0,-0.03312
2003/12/1 22:15,0.756,0,2.00592,0.31536,0.42912,0.1944,0.08496,0,-0.17856
2003/12/1 22:30,0.756,0,2.3328,0.3888,0.18576,0.19584,0.08352,0,-0.24768
2003/12/1 22:45,0.756,0,2.39184,0.17856,0.00864,0.1944,1.21824,0,-0.36144
2003/12/1 23:00,0.68688,0,0.8784,0.02448,0.34992,0.1944,0.16128,0,-0.0216
2003/12/1 23:15,0.67248,0,0.60336,0.02304,0.33408,0.27936,0.08496,0,-0.05328
2003/12/1 23:30,0.31536,0,0.2088,0.0216,0,0.324,0.08064,0,0.02448
2003/12/1 23:45,0.27792,0,0.13104,0.0216,0.1656,0.324,0.08064,0,0.0288
2003/12/2 0:00,0.27792,0,0.08064,0.03168,0.4392,0.324,0.08496,0,0.00288
2003/12/2 0:15,0.2664,0,0.07776,0.0216,0.01872,0.324,0.0792,0,0.04032
2003/12/2 0:30,0.24912,0,0.06624,0.02304,0.08928,0.324,0.08352,0,0.0576
2003/12/2 0:45,0.252,0,0.07632,0.0288,0.41904,0.324,0.08208,0,-0.00288
2003/12/2 1:00,0.26064,0,0.07632,0.02448,0.14832,0.324,0.08496,0,0.01296
2003/12/2 1:15,0.24912,0,0.08064,0.0216,0,0.324,0.0864,0,0.02736
2003/12/2 1:30,0.2448,0,0.08352,0.02592,0.33696,0.324,0.08352,0,0
2003/12/2 1:45,0.252,0,0.07776,0.02592,0.32112,0.324,0.07776,0,0.00144
2003/12/2 2:00,0.2664,0,0.08064,0.0216,0,0.324,0.08352,0,0.03456
2003/12/2 2:15,0.24768,0,0.08208,0.02592,0.1584,0.324,0.08064,0,0.0144
2003/12/2 2:30,0.24336,0,0.06912,0.02592,0.43776,0.324,0.07776,0,0.00576
2003/12/2 2:45,0.252,0,0.0792,0.02304,0.0504,0.324,0.07776,0,0.04032
2003/12/2 3:00,0.24624,0,0.07344,0.0216,0,0.324,0.08208,0,0.0576
2003/12/2 3:15,0.24912,0,0.07056,0.0288,0.42912,0.324,0.0864,0,0.00144
2003/12/2 3:30,0.24912,0,0.08352,0.02448,0.14256,0.324,0.08208,0,0.00288
2003/12/2 3:45,0.2592,0,0.10512,0.0216,0,0.324,0.08064,0,0.04176
2003/12/2 4:00,0.24912,0,0.08352,0.02592,0.39168,0.32544,0.08352,0,0.00864
2003/12/2 4:15,0.25776,0,0.07344,0.02592,0.22464,0.32544,0.08352,0,0.0072
2003/12/2 4:30,0.25056,0,0.07632,0.0216,0,0.324,0.08352,0,0.0504
2003/12/2 4:45,0.24768,0,0.0576,0.02592,0.29088,0.324,0.08928,0,0.03168
2003/12/2 5:00,0.25344,0,0.07056,0.02592,0.2808,0.324,0.08496,0,0.03024
2003/12/2 5:15,0.25776,0,0.08208,0.0216,0,0.324,0.08928,0,0.03312
2003/12/2 5:30,0.26208,0,0.06624,0.02592,0.23904,0.324,0.08352,0,0.03168
2003/12/2 5:45,0.2232,0,0.07776,0.03168,0.39024,0.324,0.08784,0,0.00432
2003/12/2 6:00,0.2736,0,0.08496,0.0216,0,0.31392,0.0864,0,0.04032
2003/12/2 6:15,0.3024,0,0.37584,0.02304,0.08208,0.1944,0.08496,0,0.0648
2003/12/2 6:30,2.07792,0,1.28448,0.66816,0.47664,0.1944,0.08784,0,-0.14112
2003/12/2 6:45,1.64016,0,2.6784,0.02592,0.14544,0.1944,0.08064,0,-0.1872
2003/12/2 7:00,1.30032,0,2.86416,1.69344,0.03744,0.20304,0.11232,0,-0.22032
2003/12/2 7:15,1.01088,0,2.62368,1.50912,0.39312,0.1944,0.0864,0,-0.10656
2003/12/2 7:30,0.64512,0,2.7144,1.64448,0.23472,0.1944,0.13968,0,-0.13392
2003/12/2 7:45,0.13248,0,1.56816,0.60192,0.01152,0.1944,0.0864,0,-0.12528
2003/12/2 8:00,0.108,0,0.6624,0.50256,0.37296,0.1944,0.108,0,-0.08496
2003/12/2 8:15,0.108,0,0.7056,0.06624,0.3312,0.1944,0.47664,0,-0.05472
2003/12/2 8:30,0.108,0,0.70128,0.0216,0,0.1944,0.08352,0,0.03312
2003/12/2 8:45,0.10944,0,0.37296,0.02448,0.23472,0.1944,0.08208,0,0.02592
2003/12/2 9:00,0.10944,0,0.32112,0.02448,0.45216,0.1944,0.08928,0,0.01728
2003/12/2 9:15,0.10944,0,0.324,0.0216,0.21168,0.1944,0.08784,0,0.04176
2003/12/2 9:30,0.11232,0,0.324,0.0216,0,0.1944,0.08352,0,0.07632
2003/12/2 9:45,0.1008,0,0.3312,0.0288,0.3744,0.1944,0.08784,0,0.01728
2003/12/2 10:00,0.10224,0,0.31968,0.0216,0.45216,0.1944,0.08064,0,0.0288
2003/12/2 10:15,0.10944,0,0.31104,0.0216,0.11088,0.1944,0.08496,0,0.05472
2003/12/2 10:30,0.09936,0,0.3096,0.0216,0,0.1944,0.08496,0,0.0864
2003/12/2 10:45,0.10224,0,0.32256,0.02736,0.44208,0.1944,0.08496,0,0.01872
2003/12/2 11:00,0.10656,0,0.3096,0.0216,0.42624,0.1944,0.0864,0,0.02592
2003/12/2 11:15,0.108,0,0.31104,0.0216,0,0.1944,0.08352,0,0.07056
2003/12/2 11:30,0.1008,0,0.30672,0.02304,0.13968,0.19584,0.08352,0,0.06912
2003/12/2 11:45,0.108,0,0.3096,0.02304,0.44352,0.1944,0.08784,0,0.01728
2003/12/2 12:00,0.11232,0,0.31392,0.0216,0.26928,0.19728,0.0864,0,0.04464
2003/12/2 12:15,0.10224,0,0.31104,0.0216,0,0.1944,0.08496,0,0.07488
2003/12/2 12:30,0.10224,0,0.30384,0.02736,0.29664,0.1944,0.08928,0,0.03888
2003/12/2 12:45,0.09648,0,0.3096,0.0216,0.44352,0.1944,0.08784,0,0.01584
2003/12/2 13:00,0.10368,0,0.31392,0.03024,0.54,0.1944,0.08928,0,-0.01008
2003/12/2 13:15,0.10656,0,0.31104,0.02736,0.55584,0.1944,0.08496,0,-0.01296
2003/12/2 13:30,0.1008,0,0.3024,0.02448,0.45792,0.1944,0.08352,0,0.01152
2003/12/2 13:45,0.10944,0,0.30528,0.02448,0.5112,0.19872,0.0864,0,0.0144
2003/12/2 14:00,0.10368,0,0.3024,0.02592,0.48384,0.1944,0.0864,0,0.02016
2003/12/2 14:15,0.09936,0,0.31248,0.02448,0.44928,0.1944,0.08208,0,0.02304
2003/12/2 14:30,0.10224,0,0.30816,0.0288,0.44208,0.1944,0.08496,0,0.01728
2003/12/2 14:45,0.10656,0,0.3096,0.0216,0.23904,0.1944,0.08784,0,0.03888
2003/12/2 15:00,0.108,0,0.32544,0.0216,0,0.1944,0.08208,0,0.072
2003/12/2 15:15,0.1008,0,0.31968,0.02736,0.39024,0.1944,0.08784,0,0.036
2003/12/2 15:30,0.108,0,0.30528,0.0216,0.45216,0.1944,0.08496,0,0.0216
2003/12/2 15:45,0.09792,0,0.3168,0.0216,0.22608,0.1944,0.08496,0,0.03744
2003/12/2 16:00,0.10512,0,0.69552,0.0216,0,0.1944,0.08496,0,0.02592
2003/12/2 16:15,0.09792,0,0.92304,0.02448,0.33696,0.1944,0.05616,0,-0.03888
2003/12/2 16:30,0.1008,0,0.9144,0.02448,0.44928,0.1944,0.11232,0,-0.0576
2003/12/2 16:45,0.10512,0,0.9648,0.02736,0.13824,0.1944,0.06192,0,-0.02304
2003/12/2 17:00,1.32768,0,1.73232,0.0216,0,0.1944,0.06912,0,-0.09504
2003/12/2 17:15,1.38384,0,2.3184,0.02448,0.396,0.1944,0.0864,0,-0.16416
2003/12/2 17:30,1.18656,0,2.85408,0.58464,0.2448,0.324,0.11952,0,-0.24912
2003/12/2 17:45,1.20384,0,2.68128,0.0216,0,0.432,0.04896,0,-0.17568
2003/12/2 18:00,1.0944,0,2.7,0.02592,0.30816,0.42912,0.11376,0,-0.2088
2003/12/2 18:15,1.05984,0,2.50128,0.02448,0.30528,0.43056,0.0864,0,-0.18576
2003/12/2 18:30,1.02672,0,1.82736,0.0216,0,0.28368,0.08784,0,-0.09648
2003/12/2 18:45,0.90864,0,2.05488,0.70704,0.25488,0.1944,0.05184,0,-0.20592
2003/12/2 19:00,0.75744,0,1.89936,0.03168,0.42912,0.1944,0.09648,0,-0.15408
2003/12/2 19:15,1.12032,0,1.61424,0.02304,0.0864,0.1944,0.07488,0,-0.16128
2003/12/2 19:30,1.34064,0,1.50192,0.0216,0.01728,0.1944,0.08496,0,-0.14112
2003/12/2 19:45,1.94976,0,1.6272,0.02304,0.42624,0.19872,0.11952,0,-0.21024
2003/12/2 20:00,3.9168,0,2.13984,0.02592,0.20448,0.2016,0.08352,0,-0.12096
2003/12/2 20:15,2.772,0,2.19888,0.0216,0,0.1944,0.08352,0,-0.1728
2003/12/2 20:30,2.78784,0,2.13264,0.02304,0.32112,0.1944,0.08208,0,-0.16992
2003/12/2 20:45,2.14992,0,2.10816,0.02304,0.4104,0.19584,0.08064,0,-0.17856
2003/12/2 21:00,2.77776,0,2.09808,0.0216,0,0.1944,0.08208,0,-0.13104
2003/12/2 21:15,2.46384,0,2.13408,0.02304,0.08928,0.1944,0.11376,0,-0.18144
2003/12/2 21:30,2.17872,0,2.99808,0.79776,0.47952,0.1944,0.08208,0,-0.33552
2003/12/2 21:45,0.77328,0,2.1672,0.31536,0.15408,0.1944,0.08208,0,-0.20016
2003/12/2 22:00,0.7344,0,2.40192,0.3888,0.02304,0.1944,0.0864,0,-0.22896
2003/12/2 22:15,1.25136,0,2.5848,0.02736,0.40176,0.1944,0.08208,0,-0.29952
2003/12/2 22:30,1.02816,0,2.1888,0.02736,0.3024,0.1944,0.08208,0,-0.22032
2003/12/2 22:45,1.06416,0,2.43504,0.0216,0,0.1944,0.40176,0,-0.18432
2003/12/2 23:00,1.09584,0,1.84176,0.02448,0.21456,0.1944,0.08064,0,-0.08784
2003/12/2 23:15,0.4896,0,1.05552,0.02592,0.432,0.1944,1.18368,0,-0.27072
2003/12/2 23:30,0.32976,0,0.72,0.0216,0.036,0.20016,0.07632,0,-0.0504
2003/12/2 23:45,0.10368,0,1.0152,0.0216,0.03456,0.21888,0.0864,0,-0.0792
2003/12/3 0:00,0.108,0,0.05904,0.02736,0.4392,0.22608,0.08064,0,0.02592
2003/12/3 0:15,0.10944,0,0.0432,0.02304,0.16272,0.20736,0.08352,0,0.0576
2003/12/3 0:30,0.10944,0,0.04752,0.0216,0,0.19872,0.08208,0,0.07776
2003/12/3 0:45,0.10224,0,0.0432,0.02304,0.38448,0.1944,0.0792,0,0.02016
2003/12/3 1:00,0.10512,0,0.0432,0.02592,0.29376,0.1944,0.07776,0,0.04752
2003/12/3 1:15,0.10224,0,0.04896,0.0216,0,0.1944,0.08352,0,0.07344
2003/12/3 1:30,0.10656,0,0.0432,0.02448,0.21024,0.1944,0.08496,0,0.04608
2003/12/3 1:45,0.10944,0,0.04752,0.0288,0.4176,0.19584,0.08208,0,0.02016
2003/12/3 2:00,0.108,0,0.0504,0.0216,0,0.1944,0.10944,0,0.072
2003/12/3 2:15,0.10368,0,0.0432,0.02304,0.11232,0.1944,0.07776,0,0.05904
2003/12/3 2:30,0.10224,0,0.05328,0.03168,0.44064,0.1944,0.0864,0,0.01584
2003/12/3 2:45,0.1008,0,0.04896,0.0216,0.06192,0.1944,0.07488,0,0.0648
2003/12/3 3:00,0.10224,0,0.04464,0.02304,0.0432,0.1944,0.0864,0,0.0792
2003/12/3 3:15,0.108,0,0.04896,0.02736,0.432,0.1944,0.0792,0,0.01152
2003/12/3 3:30,0.10224,0,0.04464,0.0216,0.08208,0.19728,0.08208,0,0.06768
2003/12/3 3:45,0.11088,0,0.0504,0.02304,0.036,0.19584,0.0792,0,0.07056
2003/12/3 4:00,0.10944,0,0.04752,0.03312,0.43776,0.1944,0.08208,0,0.01872
2003/12/3 4:15,0.10512,0,0.0432,0.02304,0.15264,0.1944,0.08928,0,0.05472
2003/12/3 4:30,0.10224,0,0.04464,0.0216,0,0.1944,0.08208,0,0.08352
2003/12/3 4:45,0.1008,0,0.04464,0.03024,0.3744,0.1944,0.08064,0,0.02592
2003/12/3 5:00,0.10368,0,0.05184,0.02448,0.2448,0.1944,0.07776,0,0.0432
2003/12/3 5:15,0.11808,0,0.11376,2.02608,0,0.1944,0.08352,0,0.01872
2003/12/3 5:30,0.12384,0,0.12672,1.35792,0.2808,0.1944,0.08208,0,-0.01584
2003/12/3 5:45,0.10944,0,0.04464,0.25488,0.36144,0.1944,0.08352,0,0.05328
2003/12/3 6:00,0.108,0,0.10512,0.0864,0,0.29232,0.08208,0,0.03888
2003/12/3 6:15,2.82096,0,0.39456,0.07632,0.18432,0.324,0.08208,0,0.01584
2003/12/3 6:30,1.61712,0,0.6192,0.02592,0.42768,0.324,0.0864,0,-0.00576
2003/12/3 6:45,2.32848,0,1.60704,0.02304,0.11808,0.32688,0.08352,0,-0.10224
2003/12/3 7:00,2.07072,0,1.6056,0.0216,0,0.34128,0.3744,0,-0.12816
2003/12/3 7:15,1.94112,0,0.98784,2.376,0.4824,0.31392,0.08352,0,-0.16848
2003/12/3 7:30,0.27648,0,1.04832,1.02528,0.23328,0.1944,0.08496,0,-0.0288
2003/12/3 7:45,0.10944,0,0.80064,0.0216,0,0.1944,0.07632,0,0.02448
2003/12/3 8:00,0.108,0,1.08864,0.33984,0.29808,0.1944,0.16128,0,-0.11664
2003/12/3 8:15,0.108,0,0.6408,0.4392,0.37728,0.1944,0.468,0,-0.14832
2003/12/3 8:30,0.10944,0,0.28944,0.0216,0,0.19584,0.08064,0,0.036
2003/12/3 8:45,0.108,0,0.04752,0.02592,0.18,0.1944,0.08352,0,0.05616
2003/12/3 9:00,0.10944,0,0.04608,0.03024,0.40896,0.1944,0.08064,0,0.03024
2003/12/3 9:15,0.108,0,0.0432,0.0216,0,0.1944,0.08352,0,0.08352
2003/12/3 9:30,0.10944,0,0.04752,0.02592,0.16992,0.1944,0.08496,0,0.06624
2003/12/3 9:45,0.108,0,0.04464,0.02592,0.4248,0.1944,0.08208,0,0.02736
2003/12/3 10:00,0.10944,0,0.0432,0.0216,0,0.1944,0.08784,0,0.072
2003/12/3 10:15,0.108,0,0.04608,0.02592,0.1728,0.19584,0.08208,0,0.05904
2003/12/3 10:30,0.10944,0,0.0432,0.02592,0.42192,0.1944,0.08496,0,0.0216
2003/12/3 10:45,0.108,0,0.04608,0.0216,0,0.1944,0.08352,0,0.08064
2003/12/3 11:00,0.10944,0,0.04464,0.02592,0.1728,0.1944,0.08208,0,0.04752
2003/12/3 11:15,0.10944,0,0.0432,0.02736,0.43776,0.1944,0.0864,0,0.0216
2003/12/3 11:30,0.10944,0,0.0432,0.0216,0,0.1944,0.08352,0,0.07344
2003/12/3 11:45,0.10944,0,0.04752,0.02448,0.17856,0.1944,0.08064,0,0.0432
2003/12/3 12:00,0.10656,0,0.0432,0.03024,0.43632,0.19872,0.08208,0,0.02016
2003/12/3 12:15,0.10224,0,0.05472,0.0216,0.01728,0.1944,0.08064,0,0.07488
2003/12/3 12:30,0.108,0,0.04608,0.02304,0.12096,0.1944,0.08208,0,0.04896
2003/12/3 12:45,0.10656,0,0.0432,0.03168,0.44352,0.1944,0.08208,0,0.02016
2003/12/3 13:00,0.10368,0,0.04752,0.02448,0.10944,0.1944,0.0864,0,0.0576
2003/12/3 13:15,0.10944,0,0.0432,0.0216,0.03456,0.1944,0.04608,0,0.07632
2003/12/3 13:30,0.11088,0,0.0432,0.02736,0.44496,0.1944,0.08064,0,0.01584
2003/12/3 13:45,0.11088,0,0.0432,0.02304,0.1296,0.1944,0.08208,0,0.06768
2003/12/3 14:00,0.10944,0,0.04464,0.02304,0.04896,0.1944,0.08064,0,0.072
2003/12/3 14:15,0.108,0,0.0432,0.02736,0.45792,0.1944,0.08496,0,0.0216
2003/12/3 14:30,0.108,0,0.0432,0.036,0.50832,0.1944,0.08496,0,-0.00144
2003/12/3 14:45,0.10512,0,0.05616,0.03168,0.56016,0.1944,0.08784,0,-0.01728
2003/12/3 15:00,0.10944,0,0.0432,0.03456,0.53424,0.1944,0.08064,0,-0.01008
2003/12/3 15:15,0.108,0,0.0432,0.0288,0.4608,0.1944,0.08064,0,0.02304
2003/12/3 15:30,0.10224,0,0.04752,0.02592,0.49824,0.1944,0.07632,0,0.01584
2003/12/3 15:45,0.108,0,0.67536,0.03168,0.47232,0.1944,0.08352,0,-0.05328
2003/12/3 16:00,0.108,0,0.67392,0.03024,0.45072,0.1944,0.0792,0,-0.05904
2003/12/3 16:15,0.10944,0,0.66816,0.02304,0.29808,0.1944,0.08064,0,-0.02736
2003/12/3 16:30,0.10656,0,0.65376,0.0216,0,0.1944,0.08208,0,0.0072
2003/12/3 16:45,0.108,0,0.7344,0.0288,0.37728,0.1944,0.08208,0,-0.0288
2003/12/3 17:00,1.42128,0,1.30464,0.34272,0.45648,0.1944,0.08064,0,-0.14976
2003/12/3 17:15,1.04688,0,0.65232,0.46656,0.19296,0.29952,0.08928,0,-0.09648
2003/12/3 17:30,0.936,0,0.61488,0.02448,0.29088,0.432,0.12384,0,-0.05616
2003/12/3 17:45,0.77472,0,0.68976,0.03024,0.43632,0.432,0.07632,0,-0.06768
2003/12/3 18:00,0.76176,0,1.88064,0.0216,0.02448,0.24768,0.08496,0,-0.09216
2003/12/3 18:15,0.7632,0,2.61792,0.02448,0.20736,0.19584,0.08352,0,-0.15696
2003/12/3 18:30,0.72864,0,2.74176,0.02592,0.4608,0.31392,0.08496,0,-0.20736
2003/12/3 18:45,0.7272,0,2.74176,0.02448,0.11808,0.4104,0.08352,0,-0.17712
2003/12/3 19:00,0.43776,0,2.5416,0.41904,0.11088,0.252,0.08496,0,-0.19152
2003/12/3 19:15,0.71856,0,1.93824,0.02592,0.45072,0.19584,0.0864,0,-0.17856
2003/12/3 19:30,0.73296,0,1.9224,0.02448,0.30096,0.19872,0.0864,0,-0.15264
2003/12/3 19:45,0.71712,0,2.45808,0.0216,0,0.19584,0.10368,0,-0.14112
2003/12/3 20:00,0.72,0,2.71872,0.0288,0.34992,0.19584,0.08784,0,-0.17136
2003/12/3 20:15,0.70704,0,2.55024,0.02304,0.33984,0.19584,0.10944,0,-0.1584
2003/12/3 20:30,0.76608,0,2.18736,0.0216,0,0.1944,0.09504,0,-0.11664
2003/12/3 20:45,0.93744,0,2.71872,0.03024,0.33552,0.1944,0.08352,0,-0.18
2003/12/3 21:00,1.09008,0,2.65536,0.0504,0.38736,0.19584,0.1152,0,-0.19728
2003/12/3 21:15,1.98576,0,2.85696,0.49248,0.02448,0.2304,0.08496,0,-0.324
2003/12/3 21:30,3.74688,0,1.94544,0.4248,0.2304,0.3456,1.27872,0,-0.44784
2003/12/3 21:45,3.11472,0,3.06144,0.22464,0.44496,0.44784,0.07056,0,-0.39168
2003/12/3 22:00,2.69856,0,3.22848,0.0216,0.06192,0.54,0.09792,0,-0.31536
2003/12/3 22:15,2.60064,0,3.34224,0.0216,0.1224,0.51264,0.68688,0,-0.40752
2003/12/3 22:30,1.80432,0,2.61792,0.4752,0.46512,0.4752,0.11808,0,-0.30816
2003/12/3 22:45,1.55664,0,0.72432,0.0216,0.13104,0.49536,0.108,0,-0.01584
2003/12/3 23:00,1.27296,0,0.32544,0.0216,0.03024,0.4968,0.0864,0,0.01728
2003/12/3 23:15,1.24848,0,0.31392,0.0288,0.4392,0.4968,0.08496,0,-0.03888
2003/12/3 23:30,1.2528,0,0.31536,0.02304,0.24192,0.4968,0.08208,0,-0.01584
2003/12/3 23:45,1.24704,0,0.3096,0.0216,0,0.49824,0.08064,0,0.01728
2003/12/4 0:00,1.18368,0,0.30816,0.0288,0.35568,0.50544,0.08352,0,-0.02736
2003/12/4 0:15,0.5544,0,0.34992,0.02592,0.31536,0.42768,0.08496,0,-0.00432
2003/12/4 0:30,0.108,0,0.30096,0.0216,0,0.28512,0.07056,0,0.036
2003/12/4 0:45,0.108,0,0.10512,0.02736,0.28224,0.27792,0.0792,0,0.01584
2003/12/4 1:00,0.11088,0,0.04464,0.03024,0.37584,0.20304,0.0792,0,0.02016
2003/12/4 1:15,0.10224,0,0.0504,0.0216,0,0.20304,0.07776,0,0.07344
2003/12/4 1:30,0.11088,0,0.04464,0.02592,0.19728,0.2016,0.08064,0,0.0576
2003/12/4 1:45,0.10944,0,0.04752,0.03024,0.44352,0.20304,0.07632,0,0.01008
2003/12/4 2:00,0.11088,0,0.0432,0.0216,0,0.2016,0.08352,0,0.07344
2003/12/4 2:15,0.108,0,0.0792,0.02592,0.14976,0.20304,0.08064,0,0.05904
2003/12/4 2:30,0.10944,0,0.04608,0.03024,0.43776,0.20448,0.08352,0,0.02016
2003/12/4 2:45,0.1008,0,0.04896,0.02304,0.04032,0.20592,0.08208,0,0.08064
2003/12/4 3:00,0.108,0,0.0432,0.02448,0.09792,0.20592,0.08784,0,0.072
2003/12/4 3:15,0.108,0,0.04464,0.03168,0.44496,0.20304,0.08352,0,0.02304
2003/12/4 3:30,0.108,0,0.05184,0.02304,0.08208,0.20448,0.08064,0,0.05904
2003/12/4 3:45,0.11088,0,0.0432,0.0216,0.05904,0.20448,0.08496,0,0.08064
2003/12/4 4:00,0.1008,0,0.04896,0.03744,0.43488,0.20592,0.08064,0,0.01296
2003/12/4 4:15,0.10224,0,0.05328,0.02448,0.11664,0.20448,0.08208,0,0.06336
2003/12/4 4:30,0.10656,0,0.07344,0.0216,0.0216,0.20592,0.0864,0,0.07344
2003/12/4 4:45,0.108,0,0.0432,0.02736,0.44064,0.20448,0.08208,0,0.01872
2003/12/4 5:00,0.10656,0,0.0432,0.0216,0.1728,0.20448,0.0864,0,0.0504
2003/12/4 5:15,0.108,0,0.0432,0.0216,0,0.20448,0.04896,0,0.08352
2003/12/4 5:30,0.10368,0,0.0432,0.0288,0.36288,0.20304,0.1152,0,0.03312
2003/12/4 5:45,0.10368,0,0.05472,0.02592,0.21168,0.25488,0.0864,0,0.0432
2003/12/4 6:00,0.10656,0,0.3024,0.50976,0,0.324,0.08208,0,0.06048
2003/12/4 6:15,0.2376,0,0.31248,2.17872,0.37152,0.324,0.08784,0,0.03312
2003/12/4 6:30,2.08656,0,1.30752,0.60768,0.37872,0.324,0.09216,0,-0.0792
2003/12/4 6:45,1.28736,0,2.55312,0.0216,0,0.324,0.25344,0,-0.1872
2003/12/4 7:00,1.28016,0,2.51712,0.0288,0.2016,0.33408,0.65664,0,-0.2952
2003/12/4 7:15,1.24128,0,2.25072,0.47952,0.43488,0.32544,0.44784,0,-0.3168
2003/12/4 7:30,0.80784,0,1.97136,0.02304,0.0288,0.27072,0.6048,0,-0.21888
2003/12/4 7:45,0.108,0,0.8928,0.02304,0.13248,0.20304,0.0936,0,-0.03168
2003/12/4 8:00,0.10368,0,0.05328,0.02448,0.44496,0.19728,0.08928,0,0.0144
2003/12/4 8:15,0.11232,0,0.0432,0.02448,0.08928,0.19728,0.08352,0,0.06048
2003/12/4 8:30,0.10224,0,0.05616,0.02304,0.0576,0.19728,0.11232,0,0.07056
2003/12/4 8:45,0.11088,0,0.0432,0.03456,0.432,0.19584,0.08496,0,0.01872
2003/12/4 9:00,0.10944,0,0.04608,0.02304,0.15552,0.19728,0.08496,0,0.06048
2003/12/4 9:15,0.10944,0,0.0432,0.0216,0,0.19728,0.08496,0,0.07056